Terminal Aerodrome Forecast
Issued by NWS Nashville, TN

Home | Current Version | Previous Version | Text Only | Print | Product List | Glossary On
Versions: 1 2 3 4 5 6 7 8 9 10 11 12 13 14
000
FTUS44 KOHX 012300 AAA
TAFCSV
TAF AMD
KCSV 012351Z 0200/0224 05003KT P6SM VCSH FEW040 OVC070
     FM020300 00000KT P6SM BKN070
     FM020800 00000KT 4SM BR BKN070
     FM021000 00000KT 1/2SM FG BKN070
     FM021300 00000KT 4SM BR BKN070
     FM021400 36003KT P6SM BKN070=

USA.gov is the U.S. government's official web portal to all federal, state and local government web resources and services.